Weather in Cayucos

United States     35°25′39″N   120°52′22″W
temp.,
°C
wind,
m/s
gust,
m/s
humid.,
%
clouds,
%
prec.,
mm/h
press.,
hPa
HPBL,
m
20 may, fri
fri2023:00+14nnw01580 0.0 100821
02:00+12nw11670 0.0 100824
05:00+11nnw12682 0.0 100734
08:00+15n23470 0.0 1009287
11:00+22nnw13267 0.0 10081064
14:00+23sw33276 0.0 10071143
17:00+19sw45387 0.0 1007470
20:00+10ssw22732 0.0 100840
21 may, sat
sat2123:00+10sse22790 0.0 101025
02:00+9se11690 0.0 101014
05:00+8sse12750 0.0 101118
08:00+15ssw12550 0.0 1012217
11:00+21sw43392 0.0 1012821
14:00+21sw54423 0.0 1013674
17:00+18sw56503 0.0 1013510
20:00+11sw23841 0.0 101452
22 may, sun
sun2223:00+9sw11942 0.0 101612
02:00+8ssw11944 0.0 101611
05:00+7ssw11948 0.0 101612
08:00+14sw006579 0.0 1017172
11:00+23wsw223231 0.0 1016721
14:00+25wsw34284 0.0 10141184
17:00+22sw45337 0.0 1014389
20:00+12sw2272100 0.0 101529
23 may, mon
mon2323:00+11sse12725 0.0 101522
02:00+12nne11605 0.0 101411
05:00+12nne22505 0.0 101317
08:00+19nne12340 0.0 1013171
11:00+28nnw23193 0.0 1012798
14:00+29w3420100 0.0 10101364
17:00+26sw342529 0.0 1009432
20:00+17ssw11526 0.0 100911
24 may, tue
tue2423:00+15wsw1152100 0.0 101014
02:00+13n115126 0.0 100911
05:00+13nne11525 0.0 100810
08:00+19w11385 0.0 1009158
11:00+28wsw21233 0.0 1008728
14:00+28wsw43253 0.0 1007992
17:00+26sw44283 0.0 1006362
20:00+15ssw22593 0.0 100836